Vorticity
5 5 7 8 9 8 8 7 7 6 6 7 8 10 9 7 10 8 11 16 15 12
10 10 12 13 13 13 13 11 9 8 8 8 9 9 10 9 9 8 7 9 15 16
11 15 16 15 15 15 15 15 15 17 16 14 13 12 12 11 12 12 12 8 10 10
12 11 12 12 12 12 13 13 13 12 11 11 11 10 12 13 16 18 17 17 9 7
12 13 11 10 10 11 12 11 8 9 8 10 9 5 11 15 17 17 10 6 13 18
10 9 9 9 9 9 11 10 11 11 12 12 11 11 13 13 20 12 13 10 21 9
9 8 8 8 12 12 10 10 11 9 10 12 12 10 11 10 10 16 17 12 9 7
10 9 12 18 18 15 11 11 10 14 12 11 11 10 9 10 12 6 11 12 15 5
13 19 13 13 14 14 13 13 13 19 14 6 12 10 23 -2 29 14 21 25 -4 23
12 10 11 14 16 16 20 13 15 11 8 22 13 24 17 7 11 6 7 14 11 10
20 21 21 20 15 14 16 20 24 28 28 26 24 19 25 23 21 26 24 22 19 19
9 11 16 17 17 15 10 6 7 9 7 4 1 -1 3 5 6 7 7 6 6 4
11 10 9 8 9 7 7 3 4 6 6 7 6 5 5 5 6 8 11 12 12 13
7 6 6 6 7 8 8 6 4 5 6 6 6 5 5 6 7 8 7 8 8 8
Height
3096 3095 3095 3095 3095 3095 3094 3093 3092 3092 3091 3091 3091 3092 3091 3089 3087 3085 3083 3082 3081 3081
3087 3086 3085 3084 3085 3085 3084 3084 3083 3082 3082 3081 3080 3080 3079 3079 3078 3075 3074 3072 3071 3069
3079 3077 3076 3076 3076 3076 3075 3075 3074 3074 3072 3071 3071 3070 3069 3068 3067 3066 3064 3063 3062 3060
3071 3070 3069 3068 3067 3067 3067 3067 3066 3066 3065 3064 3063 3062 3060 3059 3057 3055 3054 3053 3053 3051
3064 3063 3062 3061 3061 3061 3061 3060 3059 3059 3058 3057 3056 3054 3053 3051 3048 3046 3046 3045 3043 3042
3057 3057 3056 3055 3055 3054 3053 3053 3052 3051 3050 3049 3048 3047 3045 3042 3041 3039 3038 3036 3034 3032
3052 3051 3050 3048 3047 3047 3046 3046 3045 3043 3041 3041 3041 3039 3037 3036 3034 3032 3029 3028 3026 3024
3046 3045 3043 3042 3041 3040 3040 3040 3038 3037 3035 3035 3034 3032 3030 3029 3027 3025 3022 3020 3018 3016
3040 3039 3038 3037 3036 3035 3035 3034 3033 3031 3029 3029 3028 3026 3025 3023 3020 3018 3015 3012 3011 3009
3036 3036 3034 3032 3032 3031 3030 3030 3028 3026 3026 3024 3023 3021 3020 3018 3016 3013 3011 3009 3007 3007
3033 3031 3030 3030 3029 3029 3028 3026 3025 3025 3023 3021 3019 3018 3017 3016 3013 3010 3009 3008 3006 3005
3032 3030 3029 3029 3029 3029 3027 3027 3026 3025 3023 3021 3020 3019 3017 3015 3013 3011 3010 3008 3006 3004
3031 3031 3030 3029 3030 3030 3029 3027 3026 3025 3024 3022 3021 3019 3017 3015 3013 3011 3008 3006 3003 3000
3032 3032 3031 3031 3030 3030 3029 3028 3027 3025 3024 3022 3020 3018 3016 3014 3012 3010 3007 3004 3001 2997